User: anonymous   Login
Location: B�di�
(14.6834°N, 3.1047°W)
Time: 15:43:19
(UTC+00:00)
Language:

BREEZE-M DEB (TANK) - Orbit

View from above orbital plane
View from above orbital plane
View from above satellite
View from above satellite

Ground track
Ground track

The orbit data is extracted from the following two-line orbital elements,

1 32374U 07058B   20094.23950806 +.00000258 +00000-0 +19558-3 0  9993
2 32374 046.1290 243.9307 7177977 204.5115 089.5541 02.36690563104944
Epoch (UTC): 03 April 2020 05:44:53
Eccentricity: 0.7177977
inclination: 46.1290°
perigee height: 334 km
apogee height: 34477 km
right ascension of ascending node: 243.9307°
argument of perigee: 204.5115°
revolutions per day: 2.36690563
mean anomaly at epoch: 89.5541°
orbit number at epoch: 10494

The dashed part of the orbit path shows where the satellite is in the earth's shadow,  

DLR